Regional Weather Roundup
Issued by NWS

Home | Current Version | Previous Version | Graphics & Text | Print | Product List | Glossary On
Versions: 1 2 3 4 5 6 7 8 9 10 11 12 13 14 15 16 17 18 19 20 21 22 23 24 25 26 27 28 29 30 31 32 33 34 35 36 37 38 39 40 41 42 43 44 45 46 47 48 49 50
000
ASUS43 KDTX 291410
RWRMI
MICHIGAN HOURLY REGIONAL WEATHER ROUNDUP
NATIONAL WEATHER SERVICE DETROIT/PONTIAC MI
1000 AM EDT MON AUG 29 2016

NOTE: "FAIR" INDICATES FEW OR NO CLOUDS BELOW 12,000 FEET WITH NO
SIGNIFICANT WEATHER AND/OR OBSTRUCTION TO VISIBILITY.

MIZ047>049-052>055-059>063-066>070-074>076-081>083-291500-
SOUTHEAST LOWER MICHIGAN

CITY           SKY/WX    TMP DP  RH WIND       PRES   REMARKS
ADRIAN         SUNNY     73  68  84 E12       30.29R
ALMA           CLOUDY    67  67 100 E5        30.31R FOG
ANN ARBOR      SUNNY     74  66  76 MISG      30.28S
BAD AXE        CLOUDY    68  68 100 CALM      30.31S
CARO           SUNNY     71  67  89 E5        30.29S
DETROIT CITY   SUNNY     74  64  71 E7        30.29S
DETROIT        MOSUNNY   75  66  73 E7        30.29S
FLINT          MOSUNNY   72  67  84 E6        30.30R
GROSSE ILE     SUNNY     73  64  72 E10       30.27S
HILLSDALE      SUNNY     74  67  79 E7        30.28F
HOWELL         PTSUNNY   68  68  99 E6        30.30S

CITY           SKY/WX    TMP DP  RH WIND       PRES   REMARKS
JACKSON        SUNNY     73  67  81 E12       30.29R
LAMBERTVILLE   SUNNY     76  67  73 E8        30.28R
LANSING        MOSUNNY   71  66  84 E8        30.30S
LAPEER         FAIR      71  66  84 NE5       30.30S
MASON          SUNNY     69  69  97 E5        30.29S
MONROE         SUNNY     74  67  78 NE8       30.27S
MT. CLEMENS    MOSUNNY   73  67  82 E6        30.28R
PONTIAC        MOSUNNY   72  65  78 E8        30.29S
PORT HURON     SUNNY     72  68  88 N6        30.29S
TRI CITIES     MOSUNNY   72  68  87 E6        30.30S
MIDLAND        FAIR      71  68  89 NE5       30.29S
TROY           SUNNY     74  63  69 E7        30.31S
SAGINAW HB     SUNNY     72  68  88 E6        30.29S
$$
MIZ043>046-050>051-056>058-064>065-071>073-077>080-291500-
SOUTHWEST LOWER MICHIGAN

CITY           SKY/WX    TMP DP  RH WIND       PRES   REMARKS
BATTLE CREEK   CLOUDY    73  67  81 E7        30.28S
BENTON HARBOR  SUNNY     77  69  76 SE7       30.25S
BIG RAPIDS     CLOUDY    67  66  97 E8        30.30S
COLDWATER      SUNNY     74  68  82 E10       30.28S
FREMONT        FAIR      68  66  92 E7        30.28R
HOLLAND        MOSUNNY   75  69  81 E6        30.27R
GRAND RAPIDS   MOSUNNY   72  67  84 E8        30.28S
IONIA          CLOUDY    66  65  98 E6        30.28S FOG
KALAMAZOO      SUNNY     76  68  76 E7        30.27S
LUDINGTON      MOSUNNY   69  65  86 E6        30.27S
MARSHALL       SUNNY     73  66  78 SE7       30.28S
MOUNT PLEASANT CLOUDY    68  68  98 E8        30.29S
MUSKEGON       SUNNY     74  67  78 E7        30.26S
SOUTH HAVEN    SUNNY     77  71  81 SE6       30.26R
$$
MIZ016>042-291500-
NORTHERN LOWER MICHIGAN

CITY           SKY/WX    TMP DP  RH WIND       PRES   REMARKS
ALPENA         SUNNY     68  60  75 CALM      30.32R
BEAVER ISLAND  MOSUNNY   68  67  97 SE3       30.29F
BELLAIRE       SUNNY     67  61  80 CALM      30.29F
CADILLAC       MOSUNNY   67  63  87 SE7       30.30S
CHARLEVOIX     SUNNY     67  63  86 SE6       30.32S
FRANKFORT      CLOUDY    69  61  77 SE3       30.27S
GAYLORD        MOSUNNY   63  60  90 S3        30.32S
GRAYLING       SUNNY     64  62  93 CALM      30.32S
HARBOR SPRINGS SUNNY     67  61  81 E3        30.30S
HOUGHTON LAKE  SUNNY     68  63  84 E5        30.32S
MANISTEE       SUNNY     70  65  84 E5        30.27S
OSCODA         SUNNY     68  61  80 CALM      30.31R
PELLSTON       SUNNY     66  57  72 SE3       30.31S
ROGERS CITY    SUNNY     67  61  79 CALM      30.32S
TRAVERSE CITY  CLOUDY    72  63  73 VRB3      30.27S
$$
MIZ007>008-015-291500-
EASTERN UPPER MICHIGAN

CITY           SKY/WX    TMP DP  RH WIND       PRES   REMARKS
KINROSS        SUNNY     64  59  83 SE9       30.31S
MACKINAC ISLAN MOSUNNY   65  65  99 CALM      30.31R
NEWBERRY       SUNNY     64  60  88 SE5       30.31R
S. S. MARIE    SUNNY     65  59  81 VRB5      30.30R
$$
MIZ004>006-011>014-085-291500-
CENTRAL UPPER MICHIGAN

CITY           SKY/WX    TMP DP  RH WIND       PRES   REMARKS
MANISTIQUE     CLOUDY    70  67  88 SE8       30.28S
ESCANABA       CLOUDY    69  67  93 CALM      30.27R
MENOMINEE      MOSUNNY  N/A N/A N/A VRB5      30.27R
SAWYER-GWINN   CLOUDY    63  63 100 S12       30.28R
$$
MIZ001>003-009>011-084-291500-
WESTERN UPPER MICHIGAN

CITY           SKY/WX    TMP DP  RH WIND       PRES   REMARKS
IRON MOUNTAIN  CLOUDY    65  61  87 SE7       30.26S
HOUGHTON       LGT RAIN  63  60  90 SE9       30.17F
IRONWOOD       LGT RAIN  67  63  87 S10       30.16F
$$

ABBREVIATIONS USED IN REMARKS
   TC - TEMPERATURE IN CELSIUS
  WCI - WIND CHILL INDEX
   HX - HEAT INDEX
  VSB - VISIBILITY





USA.gov is the U.S. government's official web portal to all federal, state and local government web resources and services.